Location: Passau
(48.5830°N, 13.4830°E)
Time: 15:25:25
(UTC+02:00)

Envisat - Visible Passes

Search period start: 17 July 2025 00:00
Search period end: 27 July 2025 00:00
Orbit: 761 x 763 km, 98.3° (Epoch: 16 July)

Date Brightness Start Highest point End Pass type
(mag) Time Alt. Az. Time Alt. Az. Time Alt. Az.
17 Jul 4.9 03:00:37 10° NE 03:04:41 24° E 03:08:43 10° SE visible
17 Jul 3.3 04:39:00 10° N 04:43:55 52° WNW 04:48:49 10° SW visible
18 Jul 5.6 02:25:05 10° ENE 02:26:29 11° E 02:27:53 10° E visible
18 Jul 3.1 04:01:12 10° NNE 04:06:17 78° ESE 04:11:21 10° S visible
19 Jul 4.2 03:23:45 10° NNE 03:28:27 37° E 03:33:07 10° SSE visible
20 Jul 5.2 02:46:56 10° NE 02:50:24 18° E 02:53:49 10° SE visible
20 Jul 3.1 04:24:47 10° N 04:29:50 68° WNW 04:34:51 10° SSW visible
21 Jul 3.5 03:47:06 10° NNE 03:52:07 59° E 03:57:06 10° S visible
22 Jul 4.6 03:09:50 10° NE 03:14:12 28° E 03:18:33 10° SSE visible
23 Jul 5.4 02:33:32 10° ENE 02:36:04 14° E 02:38:35 10° ESE visible
23 Jul 3.0 04:10:37 10° NNE 04:15:43 88° WNW 04:20:47 10° SSW visible
24 Jul 3.9 03:33:03 10° NNE 03:37:56 45° E 03:42:45 10° S visible
25 Jul 5.0 02:56:02 10° NE 02:59:55 22° E 03:03:48 10° SE visible
25 Jul 3.2 04:34:15 10° N 04:39:13 56° WNW 04:44:10 10° SSW visible
26 Jul 3.2 03:56:29 10° NNE 04:01:33 71° ESE 04:06:33 10° S visible
